User: anonymous   Login
Location: Beacon Field Observatory
(38.7700°N, 77.0829°W)
Time: 11:31:39
(UTC-05:00)
Language:

LO-87 - Orbit

View from above orbital plane
View from above orbital plane
View from above satellite
View from above satellite

Ground track
Ground track

The orbit data is extracted from the following two-line orbital elements,

1 41557U 16033B   19343.52489842  .00000983  00000-0  39093-4 0  9995
2 41557  97.4130  69.9973 0014837  48.5586 311.6925 15.27586004196629
Epoch (UTC): 09 December 2019 12:35:51
Eccentricity: 0.0014837
inclination: 97.4130°
perigee height: 473 km
apogee height: 493 km
right ascension of ascending node: 69.9973°
argument of perigee: 48.5586°
revolutions per day: 15.27586004
mean anomaly at epoch: 311.6925°
orbit number at epoch: 19662

The dashed part of the orbit path shows where the satellite is in the earth's shadow,  

DLR